Flag for Spain Weather past 2 weeks in Zaragoza, Spain

Now
79 °F

Clear.


Feels Like: 79 °F
Forecast: 65 / 90 °F
Wind: 13 mph from Southeast

Location: Zaragoza / Aeropuerto

Current Time: Jun 4, 2015 at 12:16:00 AM

Latest Report: Jun 3, 2015 at 11:30 PM


Visibility: 10 mi

Pressure: 30.15 "Hg

Humidity: 30%

Dew point: 45 °F

Location of ZaragozaLocation

Historic Weather in Zaragoza — Graph

°F

Zaragoza temperature yesterday

Maximum temperature yesterday: 93 °F (at 5:00 PM)
Minimum temperature yesterday: 64 °F (at 7:00 AM)
Average temperature yesterday: 79 °F

Past Weeks' High & Low Weather Summary

 TemperatureHumidityPressure
High93 °F (Jun 3, 5:00 PM)88% (Jun 2, 3:00 AM)30.33 "Hg (Jun 2, 3:00 AM)
Low48 °F (May 20, 1:30 AM)17% (Jun 3, 5:00 PM)29.89 "Hg (May 29, 3:00 PM)
Average66 °F52%30.09 "Hg
* Reported May 19 10:00 PM — Jun 3 10:30 PM, Zaragoza, Weather by CustomWeather, © 2015

Note: Actual official high and low records may vary slightly from our data, if they occured in-between our weather recording intervals... More about our weather records

Advertising

Zaragoza weather history for previous 24 hours

 ConditionsComfort  
Time TempWeatherWind HumidityBarometerVisibility
10:30 PM
Wed, Jun 3
82 °FPassing clouds.14 mph25%30.12 "HgN/A
10:00 PM84 °FPassing clouds.14 mph23%30.09 "HgN/A
9:30 PM86 °FPassing clouds.18 mph24%30.09 "HgN/A
9:00 PM88 °FPassing clouds.14 mph21%30.09 "HgN/A
8:30 PM90 °FPassing clouds.9 mph21%30.07 "HgN/A
8:00 PM91 °FPassing clouds.10 mph20%30.07 "HgN/A
7:30 PM91 °FScattered clouds.12 mph18%30.07 "HgN/A
7:00 PM91 °FScattered clouds.10 mph18%30.07 "HgN/A
6:30 PM93 °FScattered clouds.10 mph20%30.07 "HgN/A
6:00 PM91 °FPassing clouds.10 mph20%30.07 "HgN/A
5:30 PM93 °FPassing clouds.8 mph19%30.07 "HgN/A
5:00 PM93 °FPassing clouds.8 mph17%30.09 "HgN/A
4:30 PM91 °FPassing clouds.8 mph20%30.09 "HgN/A
4:00 PM91 °FPassing clouds.7 mph21%30.09 "HgN/A
3:30 PM90 °FPassing clouds.8 mph22%30.12 "HgN/A
3:00 PM88 °FPassing clouds.8 mph25%30.12 "HgN/A
2:30 PM88 °FPassing clouds.7 mph27%30.12 "HgN/A
2:00 PM86 °FPassing clouds.6 mph31%30.15 "HgN/A
1:30 PM84 °FPassing clouds.6 mph35%30.15 "HgN/A
1:00 PM82 °FPassing clouds.6 mph37%30.15 "HgN/A
12:30 PM81 °FPassing clouds.6 mph42%30.15 "HgN/A
12:00 PM79 °FSunny.3 mph45%30.18 "Hg10 mi
11:30 AM77 °FSunny.3 mph47%30.18 "Hg10 mi
11:00 AM75 °FPassing clouds.5 mph50%30.18 "HgN/A
10:30 AM75 °FPassing clouds.3 mph50%30.18 "HgN/A
10:00 AM73 °FPassing clouds.6 mph53%30.18 "HgN/A
9:30 AM72 °FPassing clouds.5 mph57%30.18 "HgN/A
9:00 AM70 °FPassing clouds.5 mph64%30.18 "HgN/A
8:30 AM70 °FSunny.6 mph60%30.18 "Hg10 mi
8:00 AM68 °FPassing clouds.5 mph69%30.15 "HgN/A
7:30 AM66 °FClear.1 mph73%30.15 "Hg10 mi
7:00 AM64 °FClear.No wind78%30.15 "Hg10 mi
6:30 AM66 °FClear.1 mph73%30.15 "Hg10 mi
6:00 AM66 °FPassing clouds.3 mph68%30.12 "HgN/A
5:30 AM68 °FClear.8 mph69%30.12 "Hg10 mi
5:00 AM68 °FClear.8 mph69%30.12 "Hg10 mi
4:30 AM68 °FClear.9 mph69%30.12 "Hg10 mi
4:00 AM70 °FPassing clouds.9 mph64%30.12 "HgN/A
3:30 AM70 °FPassing clouds.10 mph69%30.12 "HgN/A
3:00 AM70 °FPassing clouds.12 mph69%30.12 "HgN/A
2:30 AM72 °FPassing clouds.12 mph65%30.12 "HgN/A
2:00 AM72 °FPassing clouds.10 mph65%30.09 "HgN/A
1:30 AM73 °FPassing clouds.9 mph61%30.09 "HgN/A
1:00 AM75 °FPassing clouds.8 mph54%30.09 "HgN/A
12:30 AM77 °FPassing clouds.9 mph42%30.09 "HgN/A
12:00 AM75 °FPassing clouds.6 mph47%30.07 "HgN/A
Weather by CustomWeather, © 2015

See weather overviewHow to use our weather pages